AirNav   Air Wisconsin pilot careers
 
 1533 users online  

9B1 Marlboro Airport
Marlboro, Massachusetts, USA

GOING TO MARLBORO?


FAA INFORMATION EFFECTIVE 12 SEPTEMBER 2019

Location

FAA Identifier: 9B1
Lat/Long: 42-20-35.4000N 071-30-32.4000W
42-20.590000N 071-30.540000W
42.3431667,-71.5090000
(estimated)
Elevation: 285 ft. / 87 m (estimated)
Variation: 15W (1985)
From city: 2 miles E of MARLBORO, MA
Time zone: UTC -4 (UTC -5 during Standard Time)
Zip code: 01752

Airport Operations

Airport use: Open to the public
Activation date: 04/1940
Control tower: no
ARTCC: BOSTON CENTER
FSS: BRIDGEPORT FLIGHT SERVICE STATION
NOTAMs facility: BDR (NOTAM-D service available)
Attendance: 0800-DUSK
Pattern altitude: 1385 ft. MSL
Wind indicator: yes
Segmented circle: no

Airport Communications

CTAF/UNICOM: 122.8
WX ASOS at BED (12 nm NE): 124.6 (781-274-9733)
WX ASOS at FIT (17 nm NW): 135.175 (978-343-9121)
WX ASOS at ORH (17 nm W): PHONE 508-795-7546
WX ASOS at OWD (18 nm SE): 119.95 (781-762-4314)
  • CLNC DLVY THRU BRIDGEPORT RADIO (BDR) 1-866-293-5149.

Nearby radio navigation aids

VOR radial/distance  VOR name  Freq  Var
BOSr284/23.0BOSTON VOR/DME112.7016W
GDMr131/27.2GARDNER VOR/DME110.6014W
PUTr047/27.6PUTNAM VOR/DME117.4014W
LWMr233/30.1LAWRENCE VOR/DME112.5015W
MHTr206/32.1MANCHESTER VOR/DME114.4015W
PVDr009/37.3PROVIDENCE VOR/DME115.6014W

 
NDB name  Hdg/Dist  Freq  Var  ID
SHAKER HILL261/16.125116WSKR ... -.- .-.
TAUNTON338/35.622716WTAN - .- -.
MARSHFIELD308/39.836816WIMR .. -- .-.

Airport Services

Parking: tiedowns
Airframe service: MAJOR
Powerplant service: MAJOR
Bottled oxygen: NONE
Bulk oxygen: NONE

Runway Information

Runway 14/32

Dimensions: 1659 x 45 ft. / 506 x 14 m
Surface: asphalt, in fair condition
Weight bearing capacity: 
Single wheel: 9.0
RUNWAY 14  RUNWAY 32
Latitude: 42-20.660635N42-20.518642N
Longitude: 071-30.696752W071-30.382200W
Elevation: 278.3 ft.273.1 ft.
Traffic pattern: leftleft
Markings: basic, in fair conditionbasic, in fair condition
Obstructions: 80 ft. trees, 600 ft. from runway, 63 ft. left of centerline, 5:1 slope to clear
4 FT FENCE ALONG ROAD +15 FT FM EOR.
72 ft. trees, 200 ft. from runway, 1:1 slope to clear
+72 FT TREES ON CNTRLN 200 FT FM THR.

Airport Ownership and Management from official FAA records

Ownership: Privately-owned
Owner: SANDY STETSON
685 FARM ROAD
MARLBORO, MA 01752
Phone 508-485-0069
Manager: SANDY STETSON
685 FARM ROAD
MARLBORO, MA 01752
Phone 508-485-0069

Airport Operational Statistics

Aircraft based on the field: 25
Single engine airplanes: 24
Helicopters: 1
    
Aircraft operations: avg 48/day *
96% local general aviation
3% transient general aviation
<1% air taxi
<1% military
* for 12-month period ending 27 April 2016

Additional Remarks

NO NGT OPNS.
NO TGLS.
NO LOW APCHS BLW 500 FT AGL.
WILDLIFE ON AND INVOF ARPT.
FOR CD CTC BOSTON APCH AT 603-594-5551.

Instrument Procedures

There are no published instrument procedures at 9B1.

Some nearby airports with instrument procedures:

6B6 - Minute Man Air Field (7 nm N)
KBED - Laurence G Hanscom Field Airport (12 nm NE)
1B6 - Hopedale Industrial Park Airport (14 nm S)
KFIT - Fitchburg Municipal Airport (17 nm NW)
KORH - Worcester Regional Airport (17 nm W)
KOWD - Norwood Memorial Airport (18 nm SE)
 
Loc | Ops | Rwys | IFR | FBO | Links
Com | Nav | Svcs | Stats | Notes
Area around 9B1 (Marlboro Airport)
 
Road maps at: MapQuest Bing Google
 
Aerial photo
WARNING: Photo may not be current or correct
Aerial photo of 9B1 (Marlboro Airport)
Photo by Pete Chaisson, Portland Flight Services
Photo taken 15-May-2015
looking west.

Do you have a better or more recent aerial photo of Marlboro Airport that you would like to share? If so, please send us your photo.

 
Sectional chart

 
Airport distance calculator
Flying to Marlboro Airport? Find the distance to fly.

From to 9B1

Sunrise and sunset
Times for 23-Sep-2019
 Local
(UTC-4)
 Zulu
(UTC)
Morning civil twilight06:0710:07
Sunrise06:3510:35
Sunset18:4122:41
Evening civil twilight19:0923:09

Current date and time
Zulu (UTC)  23-Sep-2019 14:47:03
Local (UTC-4)  23-Sep-2019 10:47:03
 
METAR
KBED 
12nm NE 
231351Z 22008KT 10SM BKN250 27/19 A2983 RMK AO2 SLP112 T02670189
KFIT 
16nm NW 
231352Z AUTO 20010KT 10SM CLR 26/18 A2985 RMK AO2 SLP104 T02610183
KORH 
17nm W 
231354Z 22013G18KT 10SM CLR 23/19 A2989 RMK AO2 SLP116 T02280194
KOWD 
18nm SE 
231353Z 21010KT 10SM FEW080 26/19 A2985 RMK AO2 SLP108 T02610189
KMQE 
19nm SE 
231356Z AUTO 21014G20KT 24/19 A2986 RMK AO1 SLP119 T02390194
KBOS 
22nm E 
231354Z 22014KT 10SM FEW040 FEW070 SCT170 BKN250 27/19 A2983 RMK AO2 SLP102 T02720189
TAF
KBED 
12nm NE 
231120Z 2312/2412 22008KT P6SM SCT100 FM240000 20012KT P6SM VCSH BKN050 FM240300 23008KT 3SM -RA BR OVC050 FM240600 25006KT P6SM VCSH OVC050
KORH 
17nm W 
231120Z 2312/2412 22010KT P6SM FEW250 FM232300 21014KT P6SM VCSH OVC100 FM240200 24010KT 6SM -RA BR OVC070 FM240300 25008KT 3SM -RA BR OVC040 FM240500 26008KT 6SM -RA BR OVC060 FM240700 27006KT P6SM BKN100
NOTAMs
Click for the latest NOTAMs
NOTAMs are issued by the DoD/FAA and will open in a separate window not controlled by AirNav.

 

 
 

Would you like to see your business listed on this page?

 If your business provides an interesting product or service to pilots, flight crews, aircraft, or users of the Marlboro Airport, you should consider listing it here.  To start the listing process, click on the button below
 
Add a business
 

Other Pages about Marlboro Airport

www.marlboroairport.org
 
Update a link
 
Copyright © AirNav, LLC. All rights reserved. Privacy Policy  Contact